Location: Longueuil
(45.5369°N, 73.5107°W)
Time: 13:42:18
(UTC-04:00)

ISS - Visible Passes

Search period start: 19 April 2025 00:00
Search period end: 29 April 2025 00:00
Orbit: 414 x 421 km, 51.6° (Epoch: 19 April)

Date Brightness Start Highest point End Pass type
(mag) Time Alt. Az. Time Alt. Az. Time Alt. Az.
20 Apr -1.7 04:42:16 11° S 04:44:38 20° SE 04:47:09 10° E visible
21 Apr -1.2 03:56:07 12° SE 03:56:42 12° SE 03:58:08 10° ESE visible
22 Apr -3.2 04:42:46 19° SSW 04:44:50 48° SE 04:48:04 10° ENE visible
23 Apr -2.6 03:56:24 29° SSE 03:56:43 30° SE 03:59:41 10° ENE visible
24 Apr -1.2 03:09:58 15° ESE 03:09:58 15° ESE 03:11:04 10° E visible
24 Apr -3.7 04:42:52 19° WSW 04:45:04 73° NNW 04:48:25 10° ENE visible
25 Apr -3.9 03:56:20 60° SSW 03:56:48 75° SSE 04:00:08 10° ENE visible
26 Apr -2.2 03:09:44 30° E 03:09:44 30° E 03:11:46 10° ENE visible
26 Apr -2.7 04:42:38 13° W 04:45:21 40° NNW 04:48:32 10° NE visible
27 Apr -0.7 02:23:05 11° E 02:23:05 11° E 02:23:15 10° ENE visible
27 Apr -3.3 03:55:58 37° WNW 03:56:56 53° NNW 04:00:13 10° NE visible
28 Apr -3.0 03:09:14 51° NE 03:09:14 51° NE 03:11:53 10° ENE visible
28 Apr -2.1 04:42:38 10° WNW 04:45:38 29° N 04:48:37 10° NE visible
